Date String (YYYY-MM-DD hh:mm:ss) UTC,Instrument flags,absolute air pressure of the measurement (hPa),sample flow rate (lpm),inlet stack bypass flow (lpm),air temperature of the measurement (°C),ambient temperature measured by the external sensor (°C),aerosol sample conditioner tube jacket temperature (°C),OPC LED temperature (°C),internal box temperature (°C),relative humidity of the measurement (%),span deviation,mass concentration of particles derived from Lorenz-Mie calculation of OPC scattering (μg/m³),mass concentration of particles derived from Lorenz-Mie calculation of OPC scattering (μg/m³),mass concentration of particles derived from Lorenz-Mie calculation of OPC scattering (μg/m³)
DateTimeUTC,F1_M11,P_M11,Q1_M11,Q2_M11,T1_M11,T2_M11,T3_M11,T4_M11,T5_M11,U1_M11,ZSPAN_M11,X0_M11,X2_M11,X1_M11
2024-04-12 21:00:00,SystemResetWarning,0828.1,4.99,000.00,025.0,023.8,000.0,033.3,026.7,008.8,0000.0,0016.91,0003.70,0001.86
2024-04-12 21:01:00,SystemResetWarning,0828.1,5.00,000.00,025.0,024.1,000.0,033.3,026.9,009.1,0000.0,0016.94,0003.69,0001.85
2024-04-12 21:02:00,SystemResetWarning,0827.9,5.02,000.00,025.1,024.3,000.0,033.3,027.0,008.7,0000.0,0017.15,0003.74,0001.86
2024-04-12 21:03:00,SystemResetWarning,0827.9,4.99,000.00,025.2,024.5,000.0,033.3,027.1,008.7,0000.0,0017.31,0003.78,0001.88
2024-04-12 21:04:00,SystemResetWarning,0827.9,4.99,000.00,025.3,024.6,000.0,033.4,027.2,008.8,0000.0,0016.70,0003.77,0001.89
2024-04-12 21:05:00,SystemResetWarning,0828.0,5.00,000.00,025.3,024.8,000.0,033.4,027.3,008.9,0000.0,0016.80,0003.80,0001.91
2024-04-12 21:06:00,SystemResetWarning,0828.0,5.00,000.00,025.4,024.9,000.0,033.4,027.3,008.2,0000.0,0015.13,0003.81,0001.92
2024-04-12 21:07:00,SystemResetWarning,0827.9,5.00,000.00,025.5,025.0,000.0,033.5,027.4,008.1,0000.0,0012.53,0003.81,0001.90
2024-04-12 21:08:00,SystemResetWarning,0827.8,5.01,000.00,025.5,025.1,000.0,033.5,027.4,008.3,0000.0,0011.92,0003.78,0001.90
2024-04-12 21:09:00,SystemResetWarning,0827.9,4.97,000.00,025.4,023.6,000.0,033.6,026.6,008.5,0000.0,0012.48,0003.82,0001.90
2024-04-12 21:10:00,SystemResetWarning,0827.8,5.01,000.00,025.0,021.8,000.0,033.6,025.5,009.1,0000.0,0012.80,0003.80,0001.89
2024-04-12 21:11:00,SystemResetWarning,0827.8,5.01,000.00,024.7,021.8,000.0,033.6,025.5,009.2,0000.0,0012.75,0003.77,0001.89
2024-04-12 21:12:00,SystemResetWarning,0827.8,5.00,000.00,024.7,022.2,000.0,033.4,025.6,009.0,0000.0,0013.36,0003.77,0001.88
2024-04-12 21:13:00,SystemResetWarning,0827.8,5.00,000.00,024.7,022.6,000.0,033.3,026.0,008.7,0000.0,0013.51,0003.77,0001.88
2024-04-12 21:14:00,SystemResetWarning,0827.8,5.00,000.00,024.7,023.0,000.0,033.3,026.3,008.5,0000.0,0013.25,0003.76,0001.86
2024-04-12 21:15:00,SystemResetWarning,0827.8,5.00,000.00,024.8,023.4,000.0,033.2,026.5,008.7,0000.0,0013.19,0003.76,0001.86
2024-04-12 21:16:00,SystemResetWarning,0827.7,5.00,000.00,024.9,023.7,000.0,033.2,026.6,008.4,0000.0,0012.68,0003.77,0001.83
2024-04-12 21:17:00,SystemResetWarning,0827.7,4.99,000.00,024.9,023.9,000.0,033.2,026.8,008.9,0000.0,0012.84,0003.77,0001.81
2024-04-12 21:18:00,SystemResetWarning,0827.7,4.99,000.00,025.0,024.1,000.0,033.2,026.9,008.6,0000.0,0012.23,0003.72,0001.81
2024-04-12 21:19:00,SystemResetWarning,0827.7,4.99,000.00,025.1,024.3,000.0,033.2,027.0,008.5,0000.0,0011.95,0003.70,0001.82
2024-04-12 21:20:00,SystemResetWarning,0827.7,5.00,000.00,025.2,024.5,000.0,033.3,027.1,008.4,0000.0,0011.43,0003.63,0001.81
2024-04-12 21:21:00,SystemResetWarning,0827.7,5.00,000.00,025.2,024.7,000.0,033.3,027.2,008.5,0000.0,0010.57,0003.59,0001.81
2024-04-12 21:22:00,SystemResetWarning,0827.7,5.00,000.00,025.3,024.8,000.0,033.3,027.2,008.5,0000.0,0010.44,0003.59,0001.81
2024-04-12 21:23:00,SystemResetWarning,0827.7,5.00,000.00,025.4,024.9,000.0,033.4,027.3,009.2,0000.0,0010.01,0003.60,0001.81
2024-04-12 21:24:00,SystemResetWarning,0827.7,5.01,000.00,025.5,025.0,000.0,033.4,027.4,009.6,0000.0,0009.27,0003.53,0001.82
2024-04-12 21:25:00,SystemResetWarning,0827.7,4.99,000.00,025.5,024.6,000.0,033.5,027.1,009.1,0000.0,0009.19,0003.54,0001.80
2024-04-12 21:26:00,SystemResetWarning,0827.7,4.99,000.00,025.2,022.5,000.0,033.6,026.0,008.9,0000.0,0010.01,0003.55,0001.80
2024-04-12 21:27:00,SystemResetWarning,0827.5,5.02,000.00,024.8,021.6,000.0,033.5,025.4,008.6,0000.0,0010.23,0003.50,0001.82
2024-04-12 21:28:00,SystemResetWarning,0827.5,5.01,000.00,024.6,022.0,000.0,033.4,025.5,009.2,0000.0,0010.16,0003.49,0001.84
2024-04-12 21:29:00,SystemResetWarning,0827.5,5.00,000.00,024.6,022.4,000.0,033.3,025.8,009.6,0000.0,0009.83,0003.49,0001.84
2024-04-12 21:30:00,SystemResetWarning,0827.6,5.00,000.00,024.7,022.8,000.0,033.2,026.1,009.4,0000.0,0009.90,0003.51,0001.85
2024-04-12 21:31:00,SystemResetWarning,0827.7,4.99,000.00,024.7,023.2,000.0,033.2,026.4,009.0,0000.0,0009.76,0003.51,0001.86
2024-04-12 21:32:00,SystemResetWarning,0827.7,5.00,000.00,024.8,023.5,000.0,033.2,026.6,008.7,0000.0,0010.00,0003.54,0001.86
2024-04-12 21:33:00,SystemResetWarning,0827.7,5.00,000.00,024.9,023.8,000.0,033.2,026.7,008.5,0000.0,0011.03,0003.57,0001.88
2024-04-12 21:34:00,SystemResetWarning,0827.7,5.00,000.00,025.0,024.1,000.0,033.2,026.8,008.8,0000.0,0011.94,0003.58,0001.90
2024-04-12 21:35:00,SystemResetWarning,0827.7,5.00,000.00,025.0,024.3,000.0,033.2,026.9,008.4,0000.0,0012.45,0003.65,0001.92
2024-04-12 21:36:00,SystemResetWarning,0827.7,5.00,000.00,025.1,024.5,000.0,033.2,027.0,009.1,0000.0,0012.18,0003.67,0001.97
2024-04-12 21:37:00,SystemResetWarning,0827.6,5.00,000.00,025.2,024.6,000.0,033.3,027.1,008.8,0000.0,0011.52,0003.68,0001.99
2024-04-12 21:38:00,SystemResetWarning,0827.5,5.00,000.00,025.3,024.8,000.0,033.3,027.2,008.5,0000.0,0011.23,0003.72,0002.01
2024-04-12 21:39:00,SystemResetWarning,0827.5,5.00,000.00,025.4,024.9,000.0,033.3,027.3,008.3,0000.0,0011.25,0003.70,0002.03
2024-04-12 21:40:00,SystemResetWarning,0827.5,4.99,000.00,025.4,025.0,000.0,033.4,027.3,008.6,0000.0,0011.20,0003.75,0002.06
2024-04-12 21:41:00,SystemResetWarning,0827.6,4.99,000.00,025.3,023.5,000.0,033.5,026.5,008.3,0000.0,0011.24,0003.77,0002.08
2024-04-12 21:42:00,SystemResetWarning,0827.4,5.00,000.00,024.9,021.7,000.0,033.5,025.4,008.9,0000.0,0011.25,0003.80,0002.08
2024-04-12 21:43:00,SystemResetWarning,0827.4,5.01,000.00,024.6,021.7,000.0,033.5,025.3,008.5,0000.0,0011.71,0003.78,0002.08
2024-04-12 21:44:00,SystemResetWarning,0827.4,5.01,000.00,024.5,022.2,000.0,033.3,025.6,008.8,0000.0,0011.83,0003.73,0002.08
2024-04-12 21:45:00,SystemResetWarning,0827.4,5.00,000.00,024.6,022.6,000.0,033.2,026.0,009.0,0000.0,0011.67,0003.68,0002.06
2024-04-12 21:46:00,SystemResetWarning,0827.4,5.01,000.00,024.6,023.0,000.0,033.2,026.2,009.1,0000.0,0011.69,0003.64,0002.03
2024-04-12 21:47:00,SystemResetWarning,0827.4,5.00,000.00,024.7,023.3,000.0,033.1,026.4,008.9,0000.0,0012.78,0003.63,0002.01
2024-04-12 21:48:00,SystemResetWarning,0827.4,5.00,000.00,024.8,023.6,000.0,033.1,026.6,008.7,0000.0,0013.62,0003.61,0002.01
2024-04-12 21:49:00,SystemResetWarning,0827.4,5.01,000.00,024.9,023.9,000.0,033.1,026.7,008.6,0000.0,0014.13,0003.57,0002.00
2024-04-12 21:50:00,SystemResetWarning,0827.4,5.00,000.00,025.0,024.1,000.0,033.1,026.9,008.7,0000.0,0014.05,0003.59,0001.98
2024-04-12 21:51:00,SystemResetWarning,0827.4,5.00,000.00,025.0,024.4,000.0,033.2,027.0,008.7,0000.0,0013.92,0003.55,0001.98
2024-04-12 21:52:00,SystemResetWarning,0827.4,4.99,000.00,025.1,024.6,000.0,033.2,027.1,008.4,0000.0,0013.98,0003.50,0001.96
2024-04-12 21:53:00,SystemResetWarning,0827.4,4.99,000.00,025.2,024.7,000.0,033.2,027.2,008.4,0000.0,0014.13,0003.49,0001.97
2024-04-12 21:54:00,SystemResetWarning,0827.4,5.00,000.00,025.3,024.9,000.0,033.3,027.3,008.3,0000.0,0013.69,0003.48,0001.97
2024-04-12 21:55:00,SystemResetWarning,0827.4,5.01,000.00,025.4,024.9,000.0,033.3,027.3,008.4,0000.0,0012.62,0003.51,0001.96
2024-04-12 21:56:00,SystemResetWarning,0827.3,4.97,000.00,025.2,023.4,000.0,033.4,026.3,009.0,0000.0,0011.70,0003.51,0001.97
2024-04-12 21:57:00,SystemResetWarning,0827.2,5.01,000.00,024.8,021.6,000.0,033.4,025.3,009.0,0000.0,0011.37,0003.55,0001.98
2024-04-12 21:58:00,SystemResetWarning,0827.3,5.01,000.00,024.6,021.8,000.0,033.4,025.3,009.4,0000.0,0010.61,0003.52,0001.96
2024-04-12 21:59:00,SystemResetWarning,0827.3,5.00,000.00,024.5,022.2,000.0,033.2,025.6,009.0,0000.0,0009.56,0003.49,0001.94
